Tracking 25195 objects as of 20-Jan-2022
HD Live streaming from Space Station
objects crossing your sky now

COSMOS 1761

Track COSMOS 1761 now!
COSMOS 1761 is classified as:


NORAD ID: 16849
Int'l Code: 1986-050A
Perigee: 5,194.8 km
Apogee: 35,166.0 km
Inclination: 69.7 °
Period: 717.6 minutes
Semi major axis: 26551 km
RCS: 12.1379 m2 (large)
Launch date: July 5, 1986
Source: Commonwealth of Independent States (former USSR) (CIS)
Launch site: PLESETSK MISSILE AND SPACE COMPLEX (PKMTR)
aabbcc
Your satellite tracking list
Your tracking list is empty




NASA's NSSDC Master Catalog

Two Line Element Set (TLE):
1 16849U 86050A   22019.86442632  .00000664  00000-0  00000-0 0  9992
2 16849  69.7076 129.5025 5643986  46.3123 289.0294  2.00665183260305
Source of the keplerian elements: AFSPC